FW1042 Weather Reports


time (UTC)temp
C
wind
direction
speed
KPH
gust
KPH
rain 1hr
cm
rain 24hr
cm
rain mn
cm
humidity
%
barometer
mb
20260506113911 12 304 8.0 17.7 0.00 0.00 0.00 81 1012.7
20260506113409 12 348 8.0 17.7 0.00 0.00 0.00 81 1012.6
20260506112909 12 24 9.7 19.3 0.00 0.00 0.00 80 1012.4
20260506112409 12 53 9.7 20.9 0.00 0.00 0.00 80 1012.2
20260506111909 12 0 8.0 20.9 0.00 0.00 0.00 80 1012.4
20260506111702 12 12 8.0 19.3 0.00 0.00 0.00 79 1012.4
20260506111200 12 0 6.4 17.7 0.00 0.00 0.00 79 1012.2
20260506110410 12 290 6.4 17.7 0.00 0.00 0.00 79 1012.1
20260506105908 12 9 9.7 20.9 0.00 0.00 0.00 79 1012.0
20260506105408 12 348 8.0 20.9 0.00 0.00 0.00 78 1011.7
20260506104907 12 5 8.0 14.5 0.00 0.00 0.00 78 1011.8
20260506104408 12 22 8.0 22.5 0.00 0.00 0.00 78 1011.7
20260506103907 13 10 8.0 22.5 0.00 0.00 0.00 77 1011.7
20260506103403 13 0 8.0 16.1 0.00 0.00 0.00 78 1011.5
20260506103222 13 298 8.0 17.7 0.00 0.00 0.00 78 1011.5
20260506102401 13 30 8.0 17.7 0.00 0.00 0.00 78 1011.3
20260506101859 13 16 9.7 17.7 0.00 0.00 0.00 78 1011.3
20260506101359 13 0 9.7 20.9 0.00 0.00 0.00 77 1011.2
20260506100856 13 5 9.7 20.9 0.00 0.00 0.00 77 1011.1
20260506100356 13 0 8.0 19.3 0.00 0.00 0.00 77 1011.0
20260506095854 13 25 8.0 20.9 0.00 0.00 0.00 77 1011.1
20260506095354 13 355 8.0 20.9 0.00 0.00 0.00 77 1011.0
20260506094856 13 0 8.0 19.3 0.00 0.00 0.00 77 1011.0
20260506094353 13 5 6.4 19.3 0.00 0.00 0.00 77 1011.0
20260506093854 13 5 8.0 22.5 0.00 0.00 0.00 77 1010.8
20260506093346 13 289 8.0 22.5 0.00 0.00 0.00 76 1010.7
20260506092842 13 336 8.0 20.9 0.00 0.00 0.00 77 1010.8
20260506092339 13 346 8.0 20.9 0.00 0.00 0.00 77 1010.7
20260506092139 13 0 8.0 19.3 0.00 0.00 0.00 77 1010.9
20260506091338 13 345 8.0 19.3 0.00 0.00 0.00 76 1010.9
20260506090838 13 49 8.0 16.1 0.00 0.00 0.00 76 1010.7
20260506090338 13 333 6.4 14.5 0.00 0.00 0.00 76 1010.6
20260506085842 13 304 6.4 19.3 0.00 0.00 0.00 76 1010.6
20260506085337 13 355 6.4 19.3 0.00 0.00 0.00 76 1010.5
20260506084839 13 300 6.4 19.3 0.00 0.00 0.00 76 1010.4
20260506084339 13 355 6.4 16.1 0.00 0.00 0.00 77 1010.4
20260506083839 13 336 8.0 16.1 0.00 0.00 0.00 76 1010.4
20260506083442 13 325 4.8 14.5 0.00 0.00 0.00 77 1010.4
20260506083423 13 344 6.4 14.5 0.00 0.00 0.00 77 1010.4
20260506082335 13 5 4.8 12.9 0.00 0.00 0.00 77 1010.2
20260506081836 13 333 6.4 16.1 0.00 0.00 0.00 77 1010.2
20260506081336 13 342 6.4 16.1 0.00 0.00 0.00 77 1010.2
20260506081135 13 297 4.8 16.1 0.00 0.00 0.00 77 1010.2
20260506080333 13 332 4.8 12.9 0.00 0.00 0.00 77 1010.2
20260506080136 13 355 4.8 12.9 0.00 0.00 0.00 77 1010.1
20260506072827 14 355 6.4 12.9 0.00 0.00 0.00 77 1009.8
20260506072325 14 18 6.4 12.9 0.00 0.00 0.00 77 1009.8
20260506071824 14 355 6.4 12.9 0.00 0.00 0.00 78 1009.8
20260506071324 14 34 8.0 17.7 0.00 0.00 0.00 78 1009.8
20260506070822 14 9 8.0 17.7 0.00 0.00 0.00 78 1009.8
20260506070321 14 5 8.0 17.7 0.00 0.00 0.00 78 1010.0
20260506062319 15 15 6.4 16.1 0.00 0.00 0.00 78 1010.0
20260506062115 15 355 6.4 17.7 0.00 0.00 0.00 78 1010.0
20260506061314 15 355 8.0 17.7 0.00 0.00 0.00 78 1010.0
20260506060808 15 330 8.0 17.7 0.00 0.00 0.00 78 1010.0
20260506060306 15 317 9.7 17.7 0.00 0.00 0.00 78 1010.1
20260506051305 15 19 9.7 17.7 0.00 0.00 0.00 79 1009.8
20260506050806 15 339 9.7 19.3 0.00 0.00 0.00 79 1009.9
20260506050306 16 277 9.7 19.3 0.00 0.00 0.00 80 1009.8
20260506050127 16 355 9.7 17.7 0.00 0.00 0.00 80 1009.7
20260506045059 16 36 8.0 19.3 0.00 0.00 0.00 80 1009.7
20260506044304 16 355 8.0 17.7 0.00 0.00 0.00 80 1009.6
20260506043843 16 330 8.0 20.9 0.00 0.00 0.00 81 1009.7
20260506043834 16 19 8.0 20.9 0.00 0.00 0.00 81 1009.7
20260506042758 16 351 8.0 19.3 0.00 0.00 0.00 81 1009.7
20260506042256 16 332 8.0 17.7 0.00 0.00 0.00 81 1009.5
20260506041758 16 298 9.7 17.7 0.00 0.00 0.00 81 1009.6
20260506041255 16 355 8.0 20.9 0.00 0.00 0.00 80 1009.5
20260506040755 16 17 9.7 20.9 0.00 0.00 0.00 80 1009.4
20260506040552 17 355 11.3 20.9 0.00 0.00 0.00 80 1009.3
20260506035754 17 310 9.7 20.9 0.00 0.00 0.00 80 1009.3
20260506035554 17 30 11.3 22.5 0.00 0.00 0.00 80 1009.2
20260506034745 17 13 11.3 22.5 0.00 0.00 0.00 80 1008.9
20260506034546 17 344 11.3 20.9 0.00 0.00 0.00 80 1009.1
20260506034039 17 14 9.7 24.1 0.00 0.00 0.00 79 1008.8
20260506033541 17 5 11.3 24.1 0.00 0.00 0.00 79 1008.9
20260506033044 17 310 9.7 20.9 0.00 0.00 0.00 79 1008.7
20260506032247 17 312 8.0 20.9 0.00 0.00 0.00 79 1008.7
20260506032036 18 5 8.0 16.1 0.00 0.00 0.00 79 1008.9
20260506031240 18 273 8.0 17.7 0.00 0.00 0.00 78 1008.9
20260506030741 18 350 8.0 22.5 0.00 0.00 0.00 78 1008.4
20260506030238 18 0 9.7 22.5 0.00 0.00 0.00 78 1008.4
20260506030049 18 9 9.7 22.5 0.00 0.00 0.00 77 1008.5
20260506025239 18 0 8.0 22.5 0.00 0.00 0.00 77 1008.2
20260506024738 18 333 9.7 20.9 0.00 0.00 0.00 77 1008.3
20260506024234 19 329 9.7 22.5 0.00 0.00 0.00 77 1008.1
20260506023737 19 11 9.7 22.5 0.00 0.00 0.00 77 1008.0
20260506023233 20 306 9.7 20.9 0.00 0.00 0.00 76 1007.7
20260506022732 20 340 8.0 19.3 0.00 0.00 0.00 76 1007.3
20260506022232 20 331 8.0 19.3 0.00 0.00 0.00 76 1007.1
20260506021733 20 355 8.0 19.3 0.00 0.00 0.00 76 1007.1
20260506021232 20 17 8.0 20.9 0.00 0.00 0.00 75 1007.1
20260506020733 20 323 8.0 20.9 0.00 0.00 0.00 75 1007.0
20260506020618 20 0 8.0 17.7 0.00 0.00 0.00 75 1006.9
20260506020614 20 341 8.0 17.7 0.00 0.00 0.00 75 1006.9
20260506015233 20 5 9.7 17.7 0.00 0.00 0.00 74 1006.7
20260506014732 21 16 9.7 17.7 0.00 0.00 0.00 73 1006.7
20260506014231 21 15 9.7 22.5 0.00 0.00 0.00 73 1006.8
20260506013730 21 288 8.0 22.5 0.00 0.00 0.00 72 1006.3
20260506013232 22 5 6.4 22.5 0.00 0.00 0.00 73 1006.3
20260506012729 22 303 4.8 17.7 0.00 0.00 0.00 72 1006.3
20260506012227 22 325 4.8 14.5 0.00 0.00 0.00 72 1006.1
20260506011728 22 310 4.8 12.9 0.00 0.00 0.00 72 1006.2
20260506011225 22 349 4.8 12.9 0.00 0.00 0.00 71 1006.0
20260506010725 22 355 4.8 12.9 0.00 0.00 0.00 71 1005.8
20260506010222 22 315 4.8 14.5 0.00 0.00 0.00 71 1006.1
20260506005723 22 5 4.8 14.5 0.00 0.00 0.00 70 1006.3
20260506005223 22 333 6.4 14.5 0.00 0.00 0.00 70 1006.0
20260506004721 22 24 6.4 14.5 0.00 0.00 0.00 69 1005.5
20260506004517 22 5 6.4 14.5 0.00 0.00 0.00 69 1005.5
20260506003720 22 304 6.4 16.1 0.00 0.00 0.00 69 1005.8
20260506003221 23 355 8.0 19.3 0.00 0.00 0.00 69 1005.6
20260506002721 23 329 6.4 19.3 0.00 0.00 0.00 68 1005.5
20260506002214 23 301 6.4 16.1 0.00 0.00 0.00 68 1005.1
20260506001708 23 289 6.4 17.7 0.00 0.00 0.00 67 1005.2
20260506001203 23 310 8.0 17.7 0.00 0.00 0.00 67 1005.2
20260506000956 23 304 8.0 20.9 0.00 0.00 0.00 67 1005.0
20260506000205 24 5 8.0 20.9 0.00 0.00 0.00 66 1005.0
20260505235703 24 338 9.7 22.5 0.00 0.00 0.00 65 1005.2
20260505235204 25 273 11.3 22.5 0.00 0.00 0.00 65 1005.0
20260505234703 25 355 9.7 20.9 0.00 0.00 0.00 64 1005.1
20260505234204 25 15 8.0 20.9 0.00 0.00 0.00 64 1004.8
20260505233702 26 325 8.0 17.7 0.00 0.00 0.00 63 1004.8
20260505233202 26 275 8.0 17.7 0.00 0.00 0.00 63 1004.7
20260505232703 26 250 9.7 22.5 0.00 0.00 0.00 62 1004.7
20260505232203 26 344 9.7 22.5 0.00 0.00 0.00 61 1004.7
20260505231704 26 317 9.7 22.5 0.00 0.00 0.00 60 1004.8
20260505231202 27 329 9.7 22.5 0.00 0.00 0.00 60 1004.5
20260505230703 27 25 9.7 22.5 0.00 0.00 0.00 59 1004.5
20260505230204 28 349 9.7 20.9 0.00 0.00 0.00 58 1004.3
20260505225703 28 0 8.0 17.7 0.00 0.00 0.00 57 1004.2
20260505225449 29 312 8.0 17.7 0.00 0.00 0.00 54 1003.9
20260505224803 30 26 4.8 12.9 0.00 0.00 0.00 49 1004.1
20260505224745 30 348 4.8 17.7 0.00 0.00 0.00 52 1003.9
20260505223957 30 296 6.4 17.7 0.00 0.00 0.00 48 1004.1
20260505223251 31 329 6.4 17.7 0.00 0.00 0.00 45 1003.7
20260505223235 31 338 6.4 17.7 0.00 0.00 0.00 46 1004.0
20260505222202 32 305 6.4 17.7 0.00 0.00 0.00 45 1003.5
20260505221703 31 260 6.4 17.7 0.00 0.00 0.00 46 1003.5
20260505221156 31 337 6.4 17.7 0.00 0.00 0.00 46 1003.5
20260505220655 31 5 6.4 16.1 0.00 0.00 0.00 45 1003.5
20260505220153 32 286 6.4 16.1 0.00 0.00 0.00 44 1003.3
20260505215654 33 10 4.8 16.1 0.00 0.00 0.00 45 1003.3
20260505215455 33 326 3.2 9.7 0.00 0.00 0.00 49 1003.4
20260505215006 33 254 4.8 14.5 0.00 0.00 0.00 48 1003.4
20260505214448 33 309 6.4 14.5 0.00 0.00 0.00 48 1003.4
20260505213654 33 169 6.4 14.5 0.00 0.00 0.00 48 1003.4
20260505213150 33 238 4.8 12.9 0.00 0.00 0.00 50 1003.4
20260505212947 33 190 4.8 16.1 0.00 0.00 0.00 50 1003.5
20260505212150 33 286 6.4 17.7 0.00 0.00 0.00 51 1003.6
20260505211650 33 130 6.4 17.7 0.00 0.00 0.00 50 1003.7
20260505211443 33 211 4.8 12.9 0.00 0.00 0.00 51 1003.8
20260505210650 33 199 4.8 12.9 0.00 0.00 0.00 51 1003.7
20260505210148 33 333 3.2 12.9 0.00 0.00 0.00 51 1003.8
20260505205650 32 317 3.2 12.9 0.00 0.00 0.00 52 1003.8
20260505205437 32 323 3.2 12.9 0.00 0.00 0.00 52 1003.8
20260505204659 32 176 4.8 12.9 0.00 0.00 0.00 54 1003.9
20260505204146 32 342 4.8 12.9 0.00 0.00 0.00 54 1004.0
20260505203943 32 303 4.8 12.9 0.00 0.00 0.00 54 1004.1
20260505203143 31 210 4.8 16.1 0.00 0.00 0.00 56 1004.0
20260505202642 32 231 3.2 16.1 0.00 0.00 0.00 54 1004.3
20260505202138 32 89 4.8 12.9 0.00 0.00 0.00 54 1004.4
20260505201646 32 269 4.8 12.9 0.00 0.00 0.00 55 1004.3
20260505201138 31 188 4.8 17.7 0.00 0.00 0.00 56 1004.3
20260505200638 31 256 6.4 17.7 0.00 0.00 0.00 55 1004.3
20260505200138 31 205 8.0 16.1 0.00 0.00 0.00 57 1004.3
20260505195935 31 180 8.0 19.3 0.00 0.00 0.00 56 1004.3
20260505195138 31 139 8.0 19.3 0.00 0.00 0.00 56 1004.5
20260505194638 31 203 8.0 19.3 0.00 0.00 0.00 58 1004.3
20260505194139 31 219 9.7 24.1 0.00 0.00 0.00 59 1004.3
20260505193634 31 141 8.0 24.1 0.00 0.00 0.00 59 1004.5
20260505193134 31 230 8.0 22.5 0.00 0.00 0.00 59 1004.5
20260505192634 31 132 8.0 17.7 0.00 0.00 0.00 58 1004.4
20260505192134 31 159 8.0 17.7 0.00 0.00 0.00 59 1004.4
20260505191635 30 167 8.0 16.1 0.00 0.00 0.00 60 1004.4
20260505191134 30 186 8.0 20.9 0.00 0.00 0.00 61 1004.4
20260505190635 30 221 8.0 20.9 0.00 0.00 0.00 60 1004.4
20260505190135 30 184 8.0 20.9 0.00 0.00 0.00 61 1004.3
20260505185634 30 149 9.7 20.9 0.00 0.00 0.00 61 1004.4
20260505185136 30 199 8.0 20.9 0.00 0.00 0.00 61 1004.4
20260505184635 30 168 6.4 19.3 0.00 0.00 0.00 61 1004.4
20260505184135 30 193 6.4 17.7 0.00 0.00 0.00 61 1004.4
20260505183635 30 215 6.4 16.1 0.00 0.00 0.00 62 1004.4
20260505183137 30 282 6.4 19.3 0.00 0.00 0.00 61 1004.4
20260505182634 30 186 8.0 19.3 0.00 0.00 0.00 62 1004.3
20260505182134 30 195 8.0 19.3 0.00 0.00 0.00 61 1004.4
20260505181631 30 140 8.0 20.9 0.00 0.00 0.00 61 1004.4
20260505181130 30 153 9.7 20.9 0.00 0.00 0.00 62 1004.4
20260505180631 30 206 9.7 20.9 0.00 0.00 0.00 62 1004.5
20260505180420 30 155 8.0 19.3 0.00 0.00 0.00 63 1004.4
20260505175631 29 130 8.0 19.3 0.00 0.00 0.00 66 1004.4
20260505175128 29 161 8.0 19.3 0.00 0.00 0.00 65 1004.4
20260505174627 29 265 8.0 17.7 0.00 0.00 0.00 66 1004.3
20260505174128 28 180 9.7 19.3 0.00 0.00 0.00 67 1004.3
20260505173922 28 136 9.7 25.7 0.00 0.00 0.00 66 1004.4
20260505173425 28 159 9.7 25.7 0.00 0.00 0.00 66 1004.3
20260505172627 28 219 9.7 20.9 0.00 0.00 0.00 66 1004.4
20260505172127 28 165 8.0 19.3 0.00 0.00 0.00 69 1004.4
20260505171628 28 213 9.7 24.1 0.00 0.00 0.00 68 1004.4
20260505171128 27 144 9.7 25.7 0.00 0.00 0.00 69 1004.4
20260505170627 27 164 9.7 25.7 0.00 0.00 0.00 69 1004.4
20260505170424 27 272 8.0 22.5 0.00 0.00 0.00 69 1004.7
20260505165628 27 218 8.0 22.5 0.00 0.00 0.00 70 1004.7
20260505165419 27 158 8.0 35.4 0.00 0.00 0.00 70 1004.4
20260505164628 27 202 8.0 35.4 0.00 0.00 0.00 71 1004.7
20260505164422 27 163 9.7 19.3 0.00 0.00 0.00 72 1004.5
20260505163626 26 212 11.3 27.4 0.00 0.00 0.00 73 1004.4
20260505163126 26 150 11.3 27.4 0.00 0.00 0.00 72 1004.4
20260505162626 26 327 11.3 25.7 0.00 0.00 0.00 73 1004.7
20260505162126 26 147 11.3 25.7 0.00 0.00 0.00 73 1004.5
20260505161925 26 175 11.3 25.7 0.00 0.00 0.00 73 1004.5
20260505161126 26 203 9.7 25.7 0.00 0.00 0.00 73 1004.2
20260505161008 26 182 11.3 29.0 0.00 0.00 0.00 74 1004.3
20260505161003 26 158 9.7 29.0 0.00 0.00 0.00 74 1004.3
20260505153120 25 163 11.3 29.0 0.00 0.00 0.00 75 1004.0
20260505152620 25 191 11.3 27.4 0.00 0.00 0.00 76 1004.1
20260505152118 25 188 12.9 27.4 0.00 0.00 0.00 77 1004.0
20260505151631 25 209 11.3 27.4 0.00 0.00 0.00 79 1004.2
20260505151118 24 126 9.7 27.4 0.00 0.00 0.00 79 1004.1
20260505150618 24 209 9.7 27.4 0.00 0.00 0.00 80 1004.4
20260505150121 24 225 9.7 27.4 0.00 0.00 0.00 80 1004.4
20260505140614 22 169 8.0 20.9 0.00 0.00 0.00 85 1004.2
20260505140114 22 276 8.0 24.1 0.00 0.00 0.00 85 1004.2
20260505130114 21 136 9.7 27.4 0.00 0.00 0.00 88 1004.3
20260505124614 21 253 9.7 29.0 0.00 0.00 0.00 88 1004.0
20260505124113 21 194 9.7 24.1 0.00 0.00 0.00 88 1003.8
20260505123612 21 185 9.7 17.7 0.00 0.00 0.00 88 1003.7
20260505123112 21 195 8.0 20.9 0.00 0.00 0.00 88 1003.6
20260505122609 21 212 9.7 24.1 0.00 0.00 0.00 88 1003.5
20260505122108 21 223 9.7 24.1 0.00 0.00 0.00 88 1003.5
20260505121607 21 214 9.7 25.7 0.00 0.00 0.00 88 1003.4
20260505121109 21 202 11.3 25.7 0.00 0.00 0.00 87 1003.4
20260505120606 21 182 11.3 24.1 0.00 0.00 0.00 87 1003.4
20260505120205 21 185 9.7 20.9 0.00 0.00 0.00 87 1003.4
20260505120148 21 202 9.7 24.1 0.00 0.00 0.00 87 1003.3
20260505115154 21 190 8.0 24.1 0.00 0.00 0.00 87 1003.2
20260505115138 21 151 9.7 24.1 0.00 0.00 0.00 87 1003.3